Regional Weather Roundup
Issued by NWS

Home | Current Version | Previous Version | Text Only | Print | Product List | Glossary Off
Versions: 1 2 3 4 5 6 7 8 9 10 11 12 13 14 15 16 17 18 19 20 21 22 23 24 25 26 27 28 29 30 31 32 33 34 35 36 37 38 39 40 41 42 43 44 45 46 47 48 49 50

000
ASUS43 KOAX 122002
RWRNE

WEATHER ROUNDUP FOR NEBRASKA
NATIONAL WEATHER SERVICE OMAHA NE
200 PM CST FRI FEB 12 2016

NOTES: SATELLITE DATA IS BEING USED TO AUGMENT CLOUD COVER ABOVE
       12000 FEET.
       "FAIR" INDICATES FEW OR NO CLOUDS BELOW 12,000 FEET WITH NO
       SIGNIFICANT WEATHER AND/OR OBSTRUCTIONS TO VISIBILITY.

  * THESE STATIONS DO NOT REPORT WEATHER SUCH AS RAIN...SNOW OR FOG.

NEZ001>004-019>022-054>056-122100-
NEBRASKA PANHANDLE

CITY           SKY/WX    TMP DP  RH WIND       PRES   REMARKS
SCOTTSBLUFF    PTSUNNY   38  30  73 E12       30.33F WCI  30
ALLIANCE       CLOUDY    33  28  81 SE6       30.34F WCI  28
CHADRON        CLOUDY    36  27  69 E5        30.36F WCI  32
SIDNEY         CLOUDY    35  31  85 E12       30.34F WCI  27
$$

NEZ057>060-069>072-079>082-122100-
SOUTHWEST NEBRASKA

CITY           SKY/WX    TMP DP  RH WIND       PRES   REMARKS
NORTH PLATTE   CLOUDY    35  27  72 NE8       30.41F WCI  29
IMPERIAL       CLOUDY    34  30  85 E8        30.39F WCI  27
MCCOOK         CLOUDY    37  31  78 NE7       30.41F WCI  32
$$

NEZ005>010-023>029-035>040-094-122100-
NORTH CENTRAL NEBRASKA

CITY           SKY/WX    TMP DP  RH WIND       PRES   REMARKS
VALENTINE      CLOUDY    26  16  65 NE5       30.45F WCI  20
AINSWORTH      CLOUDY    26  17  68 N6        30.45F WCI  19
BROKEN BOW     CLOUDY    28  22  78 NE9       30.43F WCI  19
ORD            CLOUDY    26  18  71 N9        30.47F WCI  17
$$

NEZ041-046>049-061>064-073>077-083>087-122100-
SOUTH CENTRAL NEBRASKA

CITY           SKY/WX    TMP DP  RH WIND       PRES   REMARKS
GRAND ISLAND   CLOUDY    25  19  78 NE13      30.49S WCI  14
HASTINGS       CLOUDY    26  23  88 NE17      30.46F FOG     WCI  13
HEBRON         CLOUDY    29  24  82 NE10G16   30.49S WCI  20
KEARNEY *      CLOUDY    28  25  86 NE14      30.46R WCI  17
$$

NEZ011>018-030>034-042>045-122100-
NORTHEAST NEBRASKA

CITY           SKY/WX    TMP DP  RH WIND       PRES   REMARKS
NORFOLK        FLURRIES  21  12  68 N16       30.51F WCI   7
BLAIR          PTSUNNY   22  14  70 N13       30.51R WCI  10
COLUMBUS *     CLOUDY    25   9  50 N14       30.52S WCI  13
FREMONT        SUNNY     23  11  61 N13       30.54R WCI  11
TEKAMAH        SUNNY     19  11  70 N21       30.55S WCI   3
$$

NEZ050>053-065>068-078-088>093-122100-
SOUTHEAST NEBRASKA

CITY           SKY/WX    TMP DP  RH WIND       PRES   REMARKS
LINCOLN        MOSUNNY   27  15  61 N16       30.53S WCI  15
OMAHA EPPLEY   MOSUNNY   24  13  62 NW20      30.52S WCI  10
BEATRICE       CLOUDY    29  18  63 N15       30.50S WCI  18
FALLS CITY     MOSUNNY   33  16  49 N12G23    30.48S WCI  24
NEBRASKA CITY  MOSUNNY   29  13  52 N15       30.49S WCI  17
$$

NEZ044-045-051>053-067-122100-
OMAHA AREA

CITY           SKY/WX    TMP DP  RH WIND       PRES   REMARKS
OMAHA EPPLEY   MOSUNNY   24  13  62 NW20      30.52S WCI  10
BLAIR          PTSUNNY   22  14  70 N13       30.51R WCI  10
FREMONT        SUNNY     23  11  61 N13       30.54R WCI  11
OFFUTT AFB     MOSUNNY   26  10  52 N13G25    30.52R WCI  14
WAHOO          MOCLDY    23  13  67 N18       30.52S WCI   9
$$



USA.gov is the U.S. government's official web portal to all federal, state and local government web resources and services.